NOAA NWS Hourly Roundups by Site

Regional Weather Roundup for Green Bay, WI

To Select Another Site Choose from List

Select Site:  

000
ASUS43 KGRB 211711
RWRGRB

NORTH-CENTRAL AND NORTHEAST WISCONSIN REGIONAL WEATHER ROUNDUP
NATIONAL WEATHER SERVICE GREEN BAY WI
1200 PM CDT WED APR 21 2021

WIZ005-009-010>012-018-019-211800-
NORTH CENTRAL WISCONSIN

CITY           SKY/WX    TMP DP  RH WIND       PRES   REMARKS
IRONWOOD       CLOUDY    32  21  64 NW10      30.08F
MANITOWISH WTR FLURRIES  30  20  65 W9        30.06S
ARBOR VITAE    FLURRIES  32  23  68 W7        30.05F
EAGLE RIVER    PTSUNNY   32  19  57 W9        30.04F
LAND O LAKES   LGT SNOW  32  21  64 W5        30.06F
RHINELANDER    PTSUNNY   32  21  64 CALM      30.06F
PHILLIPS       MIX PCPN  32  26  77 NW10G16   30.08R
ANTIGO         FLURRIES  33  17  53 W9        30.07F
TOMAHAWK       CLOUDY    31  24  73 NW7       30.07S
MERRILL        CLOUDY    34  18  52 CALM      30.07S
$$

WIZ013-073-211800-
NORTHEAST WISCONSIN

CITY           SKY/WX    TMP DP  RH WIND       PRES   REMARKS
IRON MOUNTAIN  CLOUDY    36   8  31 NW9G17    30.05F
MARINETTE      CLOUDY    37  10  32 NW7       30.10F
OCONTO         MOSUNNY   38  11  32 N6        30.09F
$$

WIZ017-030-035>037-045-211800-
CENTRAL WISCONSIN

CITY           SKY/WX    TMP DP  RH WIND       PRES   REMARKS
MEDFORD        MOSUNNY   33  19  58 E3        30.07F
WAUSAU         CLOUDY    39  16  39 NW8       30.06F
MOSINEE        PTSUNNY   36  25  64 SW7       30.09F
MARSHFIELD     FLURRIES  36  25  64 NW15      30.10S
WISC RAPIDS    CLOUDY    40  23  50 VRB6      30.11S
STEVENS POINT  LGT RAIN  32  17  54 W5        30.10S
WAUPACA        PTSUNNY   39  26  59 NE10      30.11F
SHAWANO        MOSUNNY   40  16  36 NW5       30.09F
CLINTONVILLE   MOSUNNY   38  22  53 SW7       30.10F
WAUTOMA        PTSUNNY   39  18  42 NW7       30.11F
$$

WIZ038-039-048-051-211800-
FOX VALLEY

CITY           SKY/WX    TMP DP  RH WIND       PRES   REMARKS
NWS GREEN BAY  MOSUNNY   40  15  36 N5        30.10F
APPLETON       PTSUNNY   37  19  48 VRB6      30.09F
OSHKOSH        PTSUNNY   36  24  62 E5        30.10F
FOND DU LAC    CLOUDY    36  26  67 CALM      30.12S
$$

WIZ022-050-052-211800-
EAST CENTRAL WISCONSIN

CITY           SKY/WX    TMP DP  RH WIND       PRES   REMARKS
EPHRAIM        CLOUDY    34  15  45 N7        30.09F
WASHINGTON ISL CLOUDY    32  17  53 N3        30.09F
STURGEON BAY   SUNNY     35  13  40 NW5       30.11F
MANITOWOC      PTSUNNY   36  14  40 N6        30.12F
SHEBOYGAN      PTSUNNY   36  27  69 CALM      30.11F
$$

LMZ563-521-522-541>543-211800-
LAKESHORE

STATION/POSITION TIME  TEMP    WIND        PRES    VSBY  WAVE
                       AIR SEA DIR/SP/G                  HT/PER
                 (UTC) (F)     (DEG/KT/KT) (MB)    (MI)  (FT/S)
SHEBOYGAN LKSHOR 1700   33      40/  6/  8   N/A
KEWAUNEE LKSHORE 1624   38      10/  9/ 13 1018.4
NORTHPORT PIER   1640   33     300/  2/  8 1020.7S
CHAMBERS ISLAND  1640   33      40/  5/  8   N/A
MENOMINEE LKSHOR 1624   34 50   20/  5/  7 1018.4
$$


 

View Past Reports for Green Bay, WI.

Products Courtesy of NOAA-NWS
NWS Information Parsing Script by Ken True at Saratoga Weather - Script by SE Lincoln Weather.